THORAD DELTA 1 DEB, 8162

Orbit data source: Space-Track

THORAD DELTA 1 DEB, 8162 is space debris in SSO originally from a launch on Fri, 15 Nov 1974 UTC launched from the Air Force Western Test Range (AFWTR). Debris objects in space refer to the collection of defunct objects orbiting the Earth. Examples of debris include non-operational satellites, rocket bodies, and fragments generated from explosions, collisions, or faulty payload assembly.

Loading next visibility...
THORAD DELTA 1 DEB details
Identifier
8162, 1974-089AC
Orbit
SSO
Last TLE update22 hours ago
Origin
Flag of USGSFC (US)
ManufacturerUnknown
MissionSpacecraft
Bus & MotorUnknown
MassUnknown
Launch date (UTC)
1974-11-15 (50 years ago)
Launch vehicleUnknown
Launch site
Air Force Western Test Range (AFWTR)
Object type
Payload
Rocket body
Debris
Shape & HBRUnknown
Radar Cross SectionSmall (<0.1 m²)

Expand to show TLE details & history

TLE from 22 hours ago
0 THORAD DELTA 1 DEB
1 08162U 74089AC  25023.68932059  .00002456  00000-0  16040-1 0  9998
2 08162 100.7678 294.9789 0135792 130.7974 259.8285 12.49124961256173
Epoch: 2025-01-23T16:32Z
Definitive object data (Epoch: 2025-01-23T16:32:37.298Z)
Latitude28.58183°
Longitude-82.35764°
Altitude1,491.65 km
Speed7.111 km/s
True Right ascension19h 16m 14s
True Declination28° 27' 04"
Sunlit
Object was in daylight at TLE epoch
Visualization TLE readout
Latitude21.40092°
Longitude108.63236°
Altitude1,377.15 km
Speed7.215 km/s
Apparent Right ascension06h 17m 16s
Apparent Declination-6° 58' 11"
Sunlit
Object is in full shadow
Visualization observer readout
Local Sidereal Time15:38:03
Azimuth301.947° NW
Elevation-41.509°
Doppler factor1
Orbital elements
Apogee altitude1,572.162 km
Perigee altitude1,359.137 km
Semi-major axis7,843.786 km
Eccentricity0.0135792
Inclination100.7678°
RAAN294.9789°
Arg. of periapsis130.7974°
True anomaly258.30165°
Mean anomaly259.8285°
Eccentric anomaly259.0646°
Mean motion3.12431 °/min
BSTAR0.01604
Orbital period115.23 mins
Loading maneuver chart data...

THORAD DELTA 1 DEB Visibility forecast

Observer location: undefined°, undefined

Span
Click to sort rows by Start time (UTC) header in descending order
Start Az.
Max El. time (UTC)
Max El. Az.
Max El.
End time (UTC)
End Az.
8 mins2025-01-24 15:39:54.052Z82.327° E2025-01-24 15:43:54.052Z51.559° ENE16.122°2025-01-24 15:47:54.052Z20.11° NNE
15 mins2025-01-24 17:28:54.052Z152.784° SSE2025-01-24 17:35:54.052Z74.656° E44.11°2025-01-24 17:43:54.052Z347.401° N
11 mins2025-01-24 19:24:54.052Z226.216° WSW2025-01-24 19:29:54.052Z267.356° W20.75°2025-01-24 19:35:54.052Z315.007° NNW
11 mins2025-01-25 05:34:54.052Z49.294° ENE2025-01-25 05:39:54.052Z98.342° ESE24.137°2025-01-25 05:45:54.052Z148.797° SSE
14 mins2025-01-25 07:26:54.052Z6.938° NNE2025-01-25 07:32:54.052Z306.524° NW40.852°2025-01-25 07:40:54.052Z215.05° SW
|